Siloam Springs, AR

11:23 PM CST on December 03, 2016 (GMT -0600)
Smith

Weather History for KSLG - January, 2012

Change the Weather History Date:

Saturday, January 7, 2012

  Actual Average Record
Temperature  
Mean Temperature 47 °F -  
Max Temperature 55 °F 43 °F 69 °F (2008)
Min Temperature 39 °F 27 °F 0 °F (2014)
Degree Days  
Heating Degree Days 18    
Moisture  
Dew Point 27 °F    
Average Humidity 47    
Maximum Humidity 81    
Minimum Humidity 29    
Precipitation  
Precipitation 0.00 in - - ()
Sea Level Pressure  
Sea Level Pressure 30.06 in    
Wind  
Wind Speed 9 mph (NE)    
Max Wind Speed 15 mph    
Max Gust Speed 23 mph    
Visibility 10 miles    
Events      
Averages and records for this station are not official NWS values.
T = Trace of Precipitation, MM = Missing Value Source: NWS Daily Summary

Daily Weather History Graph

Daily Weather History Graph

Search for Another Location

Airport or City:

Trip Planner

Search our weather history database for the weather conditions in past years. The results will help you decide how hot, cold, wet, or windy it might be!

Date:

Astronomy

Jan. 07, 2012 Rise Set
Actual Time 7:29 AM CST 5:18 PM CST
Civil Twilight 7:01 AM CST 5:47 PM CST
Nautical Twilight 6:29 AM CST 6:19 PM CST
Astronomical Twilight 5:58 AM CST 6:50 PM CST
Moon 4:04 PM CST (1/7) 6:01 AM CST (1/7)
Length of Visible Light 10h 46m
Length of Day
9h 49m
Waxing Gibbous, 97% of the Moon is Illuminated
Jan 7
Waxing Gibbous
Jan 9
Full
Jan 16
Last Quarter
Jan 23
New
Jan 30
First Quarter

Hourly Weather History & Observations

Time (CST) Temp. Windchill Dew Point Humidity Pressure Visibility Wind Dir Wind Speed Gust Speed Precip Events Conditions
12:15 AM 44.6 °F 39.7 °F 39.2 °F 81% 29.97 in 10.0 mi North 9.2 mph - N/A   Clear
12:35 AM 44.6 °F 39.7 °F 35.6 °F 71% 29.97 in 10.0 mi North 9.2 mph - N/A   Clear
12:55 AM 46.4 °F 42.9 °F 33.8 °F 62% 29.98 in 10.0 mi NNE 6.9 mph - N/A   Clear
1:15 AM 44.6 °F 41.4 °F 33.8 °F 66% 29.98 in 10.0 mi North 5.8 mph - N/A   Clear
1:35 AM 44.6 °F 40.2 °F 33.8 °F 66% 29.98 in 10.0 mi NNE 8.1 mph - N/A   Clear
1:55 AM 42.8 °F 38.6 °F 32.0 °F 66% 29.99 in 10.0 mi North 6.9 mph - N/A   Clear
2:15 AM 42.8 °F 39.3 °F 30.2 °F 61% 29.99 in 10.0 mi NNE 5.8 mph - N/A   Clear
2:35 AM 42.8 °F 38.6 °F 30.2 °F 61% 29.99 in 10.0 mi NNE 6.9 mph - N/A   Clear
2:55 AM 42.8 °F 39.3 °F 30.2 °F 61% 30.00 in 10.0 mi North 5.8 mph - N/A   Clear
3:35 AM 44.6 °F 39.7 °F 28.4 °F 53% 29.99 in 10.0 mi NNE 9.2 mph 17.3 mph N/A   Clear
3:55 AM 42.8 °F 38.0 °F 28.4 °F 57% 30.00 in 10.0 mi NNE 8.1 mph - N/A   Clear
4:15 AM 42.8 °F 36.6 °F 28.4 °F 57% 30.00 in 10.0 mi NNE 11.5 mph - N/A   Clear
4:35 AM 42.8 °F 38.0 °F 28.4 °F 57% 30.01 in 10.0 mi NNE 8.1 mph 16.1 mph N/A   Clear
4:55 AM 42.8 °F 36.6 °F 28.4 °F 57% 30.02 in 10.0 mi North 11.5 mph - N/A   Partly Cloudy
5:15 AM 42.8 °F 36.2 °F 28.4 °F 57% 30.03 in 10.0 mi NNE 12.7 mph 17.3 mph N/A   Clear
5:35 AM 42.8 °F 37.5 °F 26.6 °F 53% 30.04 in 10.0 mi NNE 9.2 mph - N/A   Clear
5:55 AM 42.8 °F 37.0 °F 26.6 °F 53% 30.04 in 10.0 mi NNE 10.4 mph - N/A   Clear
6:15 AM 41.0 °F 35.8 °F 26.6 °F 57% 30.05 in 10.0 mi NNE 8.1 mph - N/A   Clear
6:35 AM 39.2 °F 35.0 °F 26.6 °F 61% 30.06 in 10.0 mi NNE 5.8 mph - N/A   Clear
6:55 AM 39.2 °F 34.2 °F 26.6 °F 61% 30.06 in 10.0 mi NE 6.9 mph - N/A   Clear
7:15 AM 39.2 °F 34.2 °F 26.6 °F 61% 30.06 in 10.0 mi NE 6.9 mph - N/A   Clear
7:35 AM 39.2 °F 33.6 °F 26.6 °F 61% 30.06 in 10.0 mi NE 8.1 mph - N/A   Clear
7:55 AM 39.2 °F 33.0 °F 26.6 °F 61% 30.07 in 10.0 mi NE 9.2 mph - N/A   Clear
8:15 AM 39.2 °F 34.2 °F 26.6 °F 61% 30.07 in 10.0 mi NE 6.9 mph - N/A   Clear
8:35 AM 42.8 °F 37.5 °F 26.6 °F 53% 30.08 in 10.0 mi NNE 9.2 mph - N/A   Clear
8:55 AM 42.8 °F 36.6 °F 26.6 °F 53% 30.09 in 10.0 mi NE 11.5 mph - N/A   Clear
9:15 AM 44.6 °F 39.2 °F 26.6 °F 49% 30.11 in 10.0 mi NE 10.4 mph 19.6 mph N/A   Clear
9:35 AM 44.6 °F 39.2 °F 26.6 °F 49% 30.12 in 10.0 mi NE 10.4 mph - N/A   Clear
9:55 AM 46.4 °F 41.9 °F 26.6 °F 46% 30.12 in 10.0 mi ENE 9.2 mph 17.3 mph N/A   Clear
10:15 AM 48.2 °F - 26.6 °F 43% 30.12 in 10.0 mi NE 13.8 mph 19.6 mph N/A   Clear
10:35 AM 50.0 °F - 26.6 °F 40% 30.12 in 10.0 mi ENE 13.8 mph 23.0 mph N/A   Clear
10:55 AM 50.0 °F - 26.6 °F 40% 30.12 in 10.0 mi ENE 15.0 mph 18.4 mph N/A   Clear
11:15 AM 51.8 °F - 26.6 °F 38% 30.11 in 10.0 mi ENE 13.8 mph 20.7 mph N/A   Clear
11:35 AM 51.8 °F - 26.6 °F 38% 30.10 in 10.0 mi NE 11.5 mph 17.3 mph N/A   Clear
11:55 AM 53.6 °F - 26.6 °F 35% 30.09 in 10.0 mi NE 10.4 mph 18.4 mph N/A   Clear
12:15 PM 53.6 °F - 26.6 °F 35% 30.08 in 10.0 mi NE 13.8 mph 17.3 mph N/A   Clear
12:35 PM 53.6 °F - 26.6 °F 35% 30.07 in 10.0 mi ENE 11.5 mph 17.3 mph N/A   Clear
12:55 PM 55.4 °F - 28.4 °F 36% 30.06 in 10.0 mi ENE 9.2 mph - N/A   Clear
1:15 PM 55.4 °F - 28.4 °F 36% 30.06 in 10.0 mi NE 10.4 mph 16.1 mph N/A   Partly Cloudy
1:35 PM 55.4 °F - 26.6 °F 33% 30.06 in 10.0 mi NE 8.1 mph - N/A   Scattered Clouds
1:55 PM 55.4 °F - 26.6 °F 33% 30.06 in 10.0 mi ENE 9.2 mph - N/A   Scattered Clouds
2:15 PM 55.4 °F - 26.6 °F 33% 30.06 in 10.0 mi ENE 11.5 mph - N/A   Clear
2:35 PM 55.4 °F - 24.8 °F 31% 30.06 in 10.0 mi ENE 10.4 mph - N/A   Mostly Cloudy
2:55 PM 55.4 °F - 23.0 °F 29% 30.06 in 10.0 mi ENE 10.4 mph - N/A   Mostly Cloudy
3:15 PM 55.4 °F - 24.8 °F 31% 30.06 in 10.0 mi NE 10.4 mph - N/A   Mostly Cloudy
3:35 PM 53.6 °F - 24.8 °F 33% 30.06 in 10.0 mi NE 8.1 mph - N/A   Scattered Clouds
3:55 PM 53.6 °F - 23.0 °F 30% 30.06 in 10.0 mi NE 9.2 mph - N/A   Clear
4:15 PM 55.4 °F - 24.8 °F 31% 30.06 in 10.0 mi ENE 8.1 mph - N/A   Mostly Cloudy
4:35 PM 53.6 °F - 24.8 °F 33% 30.07 in 10.0 mi NNE 5.8 mph - N/A   Overcast
4:55 PM 53.6 °F - 24.8 °F 33% 30.08 in 10.0 mi NNE 8.1 mph - N/A   Overcast
5:15 PM 53.6 °F - 24.8 °F 33% 30.08 in 10.0 mi NE 6.9 mph - N/A   Overcast
5:35 PM 51.8 °F - 24.8 °F 35% 30.08 in 10.0 mi NE 6.9 mph - N/A   Overcast
5:55 PM 51.8 °F - 24.8 °F 35% 30.09 in 10.0 mi NNE 5.8 mph - N/A   Overcast
6:15 PM 51.8 °F - 24.8 °F 35% 30.09 in 10.0 mi NNE 5.8 mph - N/A   Overcast
6:35 PM 51.8 °F - 24.8 °F 35% 30.10 in 10.0 mi NE 8.1 mph - N/A   Overcast
6:55 PM 51.8 °F - 24.8 °F 35% 30.10 in 10.0 mi ENE 6.9 mph - N/A   Overcast
7:15 PM 51.8 °F - 24.8 °F 35% 30.10 in 10.0 mi NE 6.9 mph - N/A   Overcast
7:35 PM 51.8 °F - 24.8 °F 35% 30.10 in 10.0 mi NNE 6.9 mph - N/A   Overcast
8:35 PM 50.0 °F - 26.6 °F 40% 30.10 in 10.0 mi NE 8.1 mph - N/A   Overcast
8:55 PM 50.0 °F - 26.6 °F 40% 30.10 in 10.0 mi NE 9.2 mph - N/A   Overcast
9:15 PM 48.2 °F - 26.6 °F 43% 30.11 in 10.0 mi NE 8.1 mph - N/A   Overcast
9:35 PM 48.2 °F - 26.6 °F 43% 30.12 in 10.0 mi NE 3.5 mph - N/A   Overcast
9:55 PM 48.2 °F - 26.6 °F 43% 30.11 in 10.0 mi ENE 5.8 mph - N/A   Overcast
10:15 PM 48.2 °F - 26.6 °F 43% 30.12 in 10.0 mi ENE 3.5 mph - N/A   Overcast
10:35 PM 48.2 °F - 26.6 °F 43% 30.12 in 10.0 mi ENE 4.6 mph - N/A   Overcast
10:55 PM 48.2 °F - 26.6 °F 43% 30.13 in 10.0 mi ENE 5.8 mph - N/A   Overcast
11:15 PM 48.2 °F - 26.6 °F 43% 30.12 in 10.0 mi ENE 4.6 mph - N/A   Overcast
11:35 PM 48.2 °F - 24.8 °F 40% 30.11 in 10.0 mi East 8.1 mph - N/A   Mostly Cloudy
11:55 PM 48.2 °F - 24.8 °F 40% 30.11 in 10.0 mi ENE 4.6 mph - N/A   Mostly Cloudy